• In Hungary
  • List of Countries
  • For 7 days
  • Water Temperature
  • Satellite Maps
  • Weather Map
  • News
  • Weather Widgets
  • user-avatar
    Login

    Hourly Weather Starye Kargaly

    Today, 26 September, Wednesday

    Time Temperature Precipitation Wind Pressure Humidity
    00:00 +13°C° 0.1 mm 4 mps 750 mmHg 75%
    01:00 +13°C° 0.1 mm 4 mps 750 mmHg 75%
    02:00 +13°C° 0 mm 4 mps 750 mmHg 72%
    03:00 +13°C° 0 mm 5 mps 750 mmHg 69%
    04:00 +13°C° 0 mm 5 mps 750 mmHg 67%
    05:00 +13°C° 0.1 mm 6 mps 750 mmHg 68%
    06:00 +13°C° 0.1 mm 6 mps 750 mmHg 69%
    07:00 +13°C° 0.1 mm 6 mps 751 mmHg 70%
    08:00 +13°C° 0.1 mm 6 mps 751 mmHg 69%
    09:00 +13°C° 0.1 mm 6 mps 751 mmHg 68%
    10:00 +14°C° 0 mm 6 mps 751 mmHg 67%
    11:00 +13°C° 0.5 mm 6 mps 751 mmHg 71%
    12:00 +13°C° 0.5 mm 6 mps 752 mmHg 75%
    13:00 +11°C° 0.5 mm 6 mps 752 mmHg 80%
    14:00 +12°C° 0.9 mm 5 mps 752 mmHg 82%
    15:00 +12°C° 0.9 mm 5 mps 753 mmHg 84%
    16:00 +12°C° 0.9 mm 5 mps 753 mmHg 87%
    17:00 +11°C° 0.1 mm 4 mps 753 mmHg 88%
    18:00 +11°C° 0.1 mm 3 mps 753 mmHg 89%
    19:00 +11°C° 0.1 mm 3 mps 753 mmHg 91%
    20:00 +10°C° 0.2 mm 3 mps 753 mmHg 91%
    21:00 +10°C° 0.2 mm 2 mps 753 mmHg 90%
    22:00 +10°C° 0.2 mm 2 mps 753 mmHg 90%
    23:00 +10°C° 0.5 mm 2 mps 753 mmHg 91%

    Tomorrow, 27 September, Thursday

    Time Temperature Precipitation Wind Pressure Humidity
    00:00 +9°C° 0.5 mm 2 mps 753 mmHg 91%
    01:00 +9°C° 0.5 mm 2 mps 753 mmHg 92%
    02:00 +9°C° 0.3 mm 2 mps 753 mmHg 92%
    03:00 +8°C° 0.3 mm 2 mps 752 mmHg 92%
    04:00 +8°C° 0.3 mm 2 mps 752 mmHg 92%
    05:00 +8°C° 0.1 mm 2 mps 752 mmHg 90%
    06:00 +8°C° 0.1 mm 2 mps 752 mmHg 88%
    07:00 +8°C° 0.1 mm 2 mps 751 mmHg 87%
    08:00 +9°C° 0 mm 3 mps 751 mmHg 81%
    09:00 +8°C° 0 mm 4 mps 751 mmHg 75%
    10:00 +9°C° 0 mm 5 mps 751 mmHg 69%
    11:00 +9°C° 0 mm 5 mps 750 mmHg 67%
    12:00 +9°C° 0 mm 6 mps 750 mmHg 64%
    13:00 +10°C° 0 mm 7 mps 750 mmHg 61%
    14:00 +10°C° 0 mm 6 mps 749 mmHg 61%
    15:00 +9°C° 0 mm 6 mps 749 mmHg 60%
    16:00 +9°C° 0 mm 6 mps 748 mmHg 59%
    17:00 +9°C° 0 mm 6 mps 748 mmHg 62%
    18:00 +8°C° 0 mm 5 mps 747 mmHg 64%
    19:00 +7°C° 0 mm 5 mps 747 mmHg 66%
    20:00 +7°C° 0.1 mm 5 mps 746 mmHg 67%
    21:00 +7°C° 0.1 mm 6 mps 746 mmHg 68%
    22:00 +7°C° 0.1 mm 6 mps 745 mmHg 69%
    23:00 +5°C° 0.4 mm 6 mps 744 mmHg 72%

    Day after tomorrow, 28 September, Friday

    Time Temperature Precipitation Wind Pressure Humidity
    00:00 +5°C° 0.4 mm 7 mps 743 mmHg 76%
    01:00 +5°C° 0.4 mm 7 mps 742 mmHg 80%
    02:00 +4°C° 0.6 mm 7 mps 742 mmHg 82%
    03:00 +4°C° 0.6 mm 6 mps 742 mmHg 84%
    04:00 +4°C° 0.6 mm 6 mps 741 mmHg 86%
    05:00 +4°C° 0.3 mm 6 mps 742 mmHg 86%
    06:00 +4°C° 0.3 mm 6 mps 742 mmHg 87%
    07:00 +5°C° 0.3 mm 6 mps 742 mmHg 87%
    08:00 +5°C° 0.1 mm 6 mps 743 mmHg 85%
    09:00 +5°C° 0.1 mm 7 mps 743 mmHg 83%
    10:00 +5°C° 0.1 mm 7 mps 744 mmHg 80%
    11:00 +5°C° 0.1 mm 7 mps 744 mmHg 79%
    12:00 +5°C° 0.1 mm 7 mps 745 mmHg 77%
    13:00 +6°C° 0.1 mm 7 mps 745 mmHg 76%
    14:00 +6°C° 0 mm 7 mps 745 mmHg 76%
    15:00 +5°C° 0 mm 6 mps 746 mmHg 76%
    16:00 +5°C° 0 mm 6 mps 746 mmHg 77%
    17:00 +6°C° 0 mm 5 mps 746 mmHg 77%
    18:00 +6°C° 0 mm 5 mps 746 mmHg 78%
    19:00 +6°C° 0 mm 4 mps 746 mmHg 78%
    20:00 +6°C° 0.3 mm 5 mps 746 mmHg 80%
    21:00 +5°C° 0.3 mm 6 mps 745 mmHg 81%
    22:00 +5°C° 0.3 mm 6 mps 745 mmHg 83%
    23:00 +6°C° 1.6 mm 7 mps 744 mmHg 84%

    29 September, Saturday

    Time Temperature Precipitation Wind Pressure Humidity
    00:00 +6°C° 1.6 mm 7 mps 743 mmHg 85%
    01:00 +6°C° 1.6 mm 8 mps 743 mmHg 86%
    02:00 +7°C° 0.7 mm 8 mps 742 mmHg 85%
    03:00 +7°C° 0.7 mm 9 mps 742 mmHg 84%
    04:00 +8°C° 0.7 mm 9 mps 741 mmHg 82%
    05:00 +8°C° 0.5 mm 9 mps 741 mmHg 83%
    06:00 +8°C° 0.5 mm 10 mps 742 mmHg 84%
    07:00 +9°C° 0.5 mm 10 mps 742 mmHg 85%
    08:00 +10°C° 0.2 mm 9 mps 742 mmHg 82%
    09:00 +10°C° 0.2 mm 9 mps 743 mmHg 78%
    10:00 +10°C° 0.2 mm 9 mps 744 mmHg 75%
    11:00 +10°C° 0.1 mm 8 mps 745 mmHg 75%
    12:00 +9°C° 0.1 mm 8 mps 746 mmHg 74%
    13:00 +9°C° 0.1 mm 7 mps 747 mmHg 74%
    14:00 +9°C° 0 mm 7 mps 748 mmHg 73%
    15:00 +8°C° 0 mm 7 mps 748 mmHg 72%
    16:00 +8°C° 0 mm 6 mps 749 mmHg 71%
    17:00 +7°C° 0 mm 6 mps 750 mmHg 72%
    18:00 +7°C° 0 mm 5 mps 750 mmHg 73%
    19:00 +6°C° 0 mm 4 mps 751 mmHg 74%
    20:00 +6°C° 0 mm 4 mps 751 mmHg 76%
    21:00 +5°C° 0 mm 4 mps 752 mmHg 78%
    22:00 +5°C° 0 mm 3 mps 752 mmHg 79%
    23:00 +4°C° 0 mm 3 mps 752 mmHg 80%

    30 September, Sunday

    Time Temperature Precipitation Wind Pressure Humidity
    00:00 +4°C° 0 mm 3 mps 752 mmHg 80%
    01:00 +4°C° 0 mm 3 mps 753 mmHg 81%
    02:00 +3°C° 0 mm 3 mps 753 mmHg 80%
    03:00 +3°C° 0 mm 3 mps 753 mmHg 79%
    04:00 +3°C° 0 mm 3 mps 753 mmHg 78%
    05:00 +3°C° 0 mm 3 mps 753 mmHg 79%
    06:00 +3°C° 0 mm 3 mps 753 mmHg 80%
    07:00 +3°C° 0 mm 3 mps 753 mmHg 80%
    08:00 +4°C° 0 mm 3 mps 753 mmHg 77%
    09:00 +5°C° 0 mm 3 mps 753 mmHg 73%
    10:00 +7°C° 0 mm 3 mps 753 mmHg 70%
    11:00 +7°C° 0 mm 3 mps 753 mmHg 68%
    12:00 +8°C° 0 mm 3 mps 753 mmHg 66%
    13:00 +8°C° 0 mm 3 mps 753 mmHg 64%
    14:00 +8°C° 0.1 mm 3 mps 753 mmHg 65%
    15:00 +8°C° 0.1 mm 3 mps 753 mmHg 66%
    16:00 +8°C° 0.1 mm 3 mps 753 mmHg 66%
    17:00 +7°C° 0.1 mm 3 mps 753 mmHg 71%
    18:00 +6°C° 0.1 mm 2 mps 753 mmHg 75%
    19:00 +5°C° 0.1 mm 2 mps 753 mmHg 80%
    20:00 +5°C° 0 mm 2 mps 754 mmHg 81%
    21:00 +5°C° 0 mm 2 mps 754 mmHg 82%
    22:00 +4°C° 0 mm 3 mps 754 mmHg 83%
    23:00 +4°C° 0.1 mm 3 mps 754 mmHg 84%

    1 October, Monday

    Time Temperature Precipitation Wind Pressure Humidity
    00:00 +4°C° 0.1 mm 3 mps 754 mmHg 86%
    01:00 +3°C° 0.1 mm 3 mps 754 mmHg 88%
    02:00 +3°C° 0.1 mm 3 mps 754 mmHg 89%
    03:00 +3°C° 0.1 mm 3 mps 754 mmHg 90%
    04:00 +3°C° 0.1 mm 3 mps 754 mmHg 91%
    05:00 +3°C° 0 mm 3 mps 754 mmHg 90%
    06:00 +3°C° 0 mm 3 mps 754 mmHg 90%
    07:00 +1°C° 0 mm 4 mps 755 mmHg 90%
    08:00 +3°C° 0 mm 4 mps 755 mmHg 85%
    09:00 +3°C° 0 mm 4 mps 755 mmHg 80%
    10:00 +4°C° 0 mm 4 mps 755 mmHg 76%
    11:00 +5°C° 0 mm 4 mps 755 mmHg 70%
    12:00 +5°C° 0 mm 4 mps 756 mmHg 64%
    13:00 +6°C° 0 mm 4 mps 756 mmHg 59%
    14:00 +6°C° 0 mm 4 mps 756 mmHg 58%
    15:00 +7°C° 0 mm 4 mps 756 mmHg 57%
    16:00 +7°C° 0 mm 4 mps 756 mmHg 56%
    17:00 +6°C° 0 mm 4 mps 756 mmHg 61%
    18:00 +5°C° 0 mm 3 mps 756 mmHg 66%
    19:00 +4°C° 0 mm 3 mps 756 mmHg 71%
    20:00 +4°C° 0 mm 3 mps 756 mmHg 72%
    21:00 +5°C° 0 mm 4 mps 756 mmHg 73%
    22:00 +5°C° 0 mm 4 mps 756 mmHg 74%
    23:00 +5°C° 0 mm 4 mps 756 mmHg 78%
    Show more